Location: Prague
(50.0830°N, 14.4670°E)
Time: 10:37:00
(UTC+01:00)

AO-7 - Pass Details

Date: 16 December 2021
Orbit: 1440 x 1459 km, 101.9° (Epoch: 29 January)

Event Time Altitude Azimuth Distance (km) Brightness Sun altitude
Rises 05:52:57 0° 18° (NNE) 4,553 ? -18.4°
Reaches altitude 10° 05:55:51 10° 13° (NNE) 3,574 ? -18.0°
Maximum altitude 06:03:37 46° 304° (NW) 1,867 ? -16.8°
Drops below altitude 10° 06:11:25 10° 235° (SW) 3,571 ? -15.6°
Sets 06:14:19 0° 229° (SW) 4,549 ? -15.1°
